Wind_Speed
37 33 32 27 27 27 28 25 22 20 24 26 28 30 27 17 12 6 6 5 8 9 10 12 18 25 32 38 39 38 42 48 57
39 32 28 30 26 26 29 27 23 20 19 20 23 20 15 12 9 6 6 3 6 7 9 11 17 25 31 38 39 41 38 43 53
35 31 31 31 27 27 30 29 25 20 16 15 15 14 13 11 9 7 7 4 5 6 9 11 16 24 29 35 38 41 39 44 48
36 32 33 33 29 29 33 31 27 21 17 14 14 14 13 11 10 9 9 7 5 6 8 12 17 22 27 32 40 41 41 39 45
32 35 36 34 31 31 34 33 29 23 18 16 16 15 14 12 12 11 11 9 6 6 9 12 18 21 26 31 37 41 41 42 42
35 37 38 35 31 33 34 34 31 26 21 18 17 17 16 13 13 13 13 10 9 7 8 12 16 20 25 29 33 39 41 42 41
38 35 38 38 33 33 36 36 32 29 24 21 20 19 18 15 15 15 14 12 10 7 7 11 15 20 23 27 31 37 42 41 42
44 37 39 39 37 34 38 38 34 31 28 24 22 21 19 16 17 17 16 15 12 8 7 12 15 19 21 23 27 34 40 43 42
45 40 38 41 39 35 39 40 36 34 31 26 23 22 21 18 19 19 18 17 14 10 8 11 14 17 19 23 25 30 36 42 44
45 41 36 42 41 37 41 42 39 36 34 29 26 23 23 21 20 20 20 19 16 12 10 11 14 16 19 22 24 27 32 37 42
45 41 35 40 43 39 43 45 41 38 37 32 30 26 24 23 22 22 21 21 19 15 10 13 11 16 19 20 22 25 30 33 38
46 41 37 40 44 42 44 47 45 40 39 36 33 29 27 26 23 23 22 23 22 19 13 13 14 14 19 19 20 22 28 30 34
48 42 39 37 42 45 43 49 48 42 41 40 36 32 30 28 24 23 23 23 22 21 17 14 15 18 18 17 18 21 25 26 31
47 43 39 36 40 47 44 49 50 45 43 42 38 34 32 29 27 25 24 24 23 22 19 20 16 19 19 17 16 20 22 26 28
43 48 39 40 39 49 46 48 51 48 45 44 41 37 34 31 28 26 25 25 25 24 22 22 22 16 20 17 16 18 20 25 24
52 50 47 42 43 48 50 49 52 55 43 46 45 41 37 33 30 28 26 27 26 27 26 26 24 20 19 20 19 16 20 24 26
57 55 54 45 48 46 52 51 54 57 45 42 46 44 40 36 33 31 30 29 28 28 28 27 24 22 17 20 19 17 19 22 25
57 60 55 49 50 47 53 53 55 58 54 39 45 48 43 40 36 33 32 32 31 30 28 28 25 24 22 17 21 21 22 23 25
60 64 61 52 55 50 52 55 57 59 56 50 39 49 48 43 39 36 35 34 33 32 30 30 28 25 23 18 23 25 23 25 26
63 66 63 55 56 53 55 56 59 60 59 59 43 40 49 48 44 41 40 38 36 35 33 32 32 30 27 24 24 26 24 24 27
Wind_Direction
289 292 286 263 247 242 237 234 233 230 235 246 255 266 283 284 284 274 288 320 341 355 2 4 4 7 12 13 14 15 24 26 28
284 282 269 261 243 240 234 233 235 232 239 248 252 264 265 269 261 255 273 289 326 353 360 1 2 9 13 14 14 16 24 28 28
266 268 258 249 245 241 233 232 234 233 235 243 243 244 256 257 250 252 264 245 309 346 355 358 359 7 10 12 15 17 25 32 28
264 256 252 245 238 237 236 229 232 228 228 230 237 243 249 249 248 254 259 240 279 326 347 354 355 359 6 11 16 17 21 26 29
251 257 252 239 233 236 234 227 231 223 227 226 235 240 246 246 249 255 259 247 265 319 334 340 351 357 3 9 17 18 20 23 27
253 250 241 233 232 234 231 228 230 223 223 223 233 239 245 245 249 254 258 256 261 301 326 343 351 359 1 8 12 19 20 22 24
241 244 236 232 230 232 228 226 226 226 220 223 231 239 243 243 248 251 254 253 261 285 313 339 347 352 354 4 10 15 19 20 21
238 239 236 231 228 229 225 224 223 227 223 223 229 237 240 241 249 250 252 251 260 275 300 329 340 344 347 2 10 14 18 20 20
234 236 238 231 228 227 225 222 223 227 225 224 229 235 237 237 244 249 249 250 262 269 293 323 336 336 345 358 7 13 17 19 19
234 235 237 231 226 226 225 221 224 227 226 224 229 232 235 238 240 247 249 247 259 268 286 311 327 329 335 350 2 9 11 13 18
233 233 237 232 226 226 225 221 223 227 227 225 228 230 232 236 239 243 246 246 258 267 284 304 316 320 329 341 358 4 8 8 14
231 232 233 232 229 225 226 222 221 227 227 226 229 230 229 235 235 240 245 246 256 265 276 296 306 311 320 330 350 358 4 9 13
232 231 235 238 232 224 227 223 222 227 227 227 229 232 230 232 236 239 244 245 252 266 278 280 298 304 307 321 340 350 356 2 11
231 230 234 239 233 226 226 226 224 227 229 228 228 232 233 231 235 238 242 246 249 262 271 274 286 294 299 313 331 340 349 356 2
231 231 234 237 236 230 226 227 226 225 229 227 227 229 234 233 235 238 242 245 248 257 261 268 281 286 290 303 320 333 343 351 358
233 236 235 238 239 232 229 228 227 227 230 228 227 227 232 233 233 235 239 243 249 255 260 266 278 282 281 294 307 325 333 343 349
236 236 235 238 238 237 232 230 228 227 224 238 229 228 230 234 233 234 238 243 248 252 256 264 268 272 279 288 299 315 325 334 342
234 234 233 239 237 239 233 230 227 225 226 232 237 230 228 232 233 234 238 241 246 248 252 259 262 266 270 276 290 304 314 324 334
230 230 231 241 240 236 235 234 229 226 225 227 241 235 231 230 235 234 237 241 245 247 249 255 259 263 266 280 281 294 301 315 323
228 232 230 237 238 235 234 235 229 226 225 230 229 243 236 231 231 233 235 240 242 244 248 253 259 263 270 279 278 286 292 306 314
Height
10846 10849 10849 10850 10853 10855 10858 10859 10860 10861 10862 10863 10863 10862 10864 10863 10863 10862 10861 10861 10860 10859 10857 10855 10853 10849 10844 10839 10832 10825 10817 10808 10799
10843 10845 10844 10846 10848 10850 10854 10855 10857 10857 10859 10860 10861 10862 10862 10862 10862 10862 10861 10861 10860 10859 10858 10856 10853 10849 10845 10840 10833 10826 10819 10811 10803
10836 10838 10839 10841 10844 10846 10849 10852 10854 10854 10856 10856 10858 10860 10860 10860 10861 10861 10860 10861 10860 10859 10858 10856 10854 10850 10847 10842 10835 10828 10821 10815 10807
10830 10832 10834 10836 10839 10841 10844 10848 10850 10851 10853 10854 10856 10858 10858 10859 10859 10859 10859 10860 10860 10858 10857 10856 10853 10850 10847 10844 10838 10830 10824 10817 10810
10822 10826 10828 10831 10833 10836 10839 10843 10847 10848 10850 10852 10854 10855 10856 10857 10857 10858 10858 10859 10859 10858 10857 10855 10853 10850 10847 10844 10839 10833 10826 10819 10813
10817 10819 10821 10824 10827 10830 10834 10839 10842 10845 10847 10849 10851 10852 10854 10855 10856 10856 10857 10858 10858 10858 10857 10855 10853 10850 10848 10845 10840 10835 10829 10822 10816
10811 10813 10815 10817 10821 10824 10828 10834 10838 10842 10843 10845 10847 10849 10851 10853 10854 10854 10855 10856 10857 10857 10856 10855 10853 10851 10848 10845 10842 10837 10831 10825 10819
10803 10806 10809 10812 10815 10819 10822 10828 10833 10837 10839 10841 10843 10845 10848 10850 10852 10853 10854 10855 10856 10856 10856 10855 10853 10851 10849 10846 10843 10839 10833 10827 10821
10794 10800 10803 10807 10810 10813 10817 10823 10828 10832 10835 10837 10840 10842 10845 10847 10849 10850 10852 10853 10854 10855 10855 10854 10853 10851 10849 10846 10844 10840 10835 10829 10823
10786 10794 10796 10801 10804 10808 10813 10817 10823 10827 10830 10833 10836 10838 10842 10844 10846 10848 10850 10851 10852 10853 10853 10853 10852 10850 10848 10846 10843 10840 10836 10831 10825
10779 10785 10790 10793 10798 10801 10807 10812 10817 10821 10824 10829 10831 10833 10837 10840 10843 10845 10847 10848 10850 10852 10852 10851 10850 10849 10847 10846 10844 10840 10837 10833 10827
10772 10779 10782 10785 10791 10795 10801 10806 10810 10815 10818 10823 10825 10829 10832 10835 10839 10842 10844 10846 10847 10849 10850 10850 10848 10848 10847 10846 10844 10841 10838 10834 10829
10766 10772 10775 10778 10783 10788 10794 10799 10804 10808 10812 10817 10821 10825 10828 10831 10835 10838 10841 10843 10845 10846 10847 10848 10847 10846 10846 10844 10843 10841 10838 10835 10831
10758 10764 10767 10771 10775 10781 10786 10793 10798 10801 10806 10811 10815 10820 10823 10827 10830 10834 10837 10839 10841 10843 10844 10845 10845 10844 10844 10843 10841 10840 10838 10835 10831
10749 10755 10759 10764 10766 10773 10779 10784 10791 10793 10800 10804 10809 10814 10819 10823 10826 10829 10832 10835 10837 10839 10840 10841 10842 10843 10841 10841 10839 10838 10836 10835 10832
10739 10746 10751 10755 10758 10763 10771 10776 10783 10786 10792 10797 10802 10808 10813 10817 10821 10824 10827 10830 10832 10834 10836 10837 10838 10838 10839 10838 10837 10836 10835 10833 10831
10728 10736 10741 10745 10750 10755 10762 10768 10774 10777 10785 10790 10797 10801 10807 10811 10816 10819 10822 10825 10827 10829 10831 10833 10834 10834 10835 10834 10834 10833 10833 10831 10829
10716 10722 10730 10736 10740 10745 10751 10759 10764 10769 10778 10782 10789 10794 10800 10805 10809 10813 10816 10819 10822 10824 10826 10827 10829 10830 10831 10831 10831 10830 10830 10829 10827
10702 10709 10718 10725 10731 10737 10740 10747 10754 10762 10770 10776 10780 10787 10792 10798 10803 10806 10810 10812 10816 10818 10820 10822 10823 10825 10826 10827 10827 10827 10826 10825 10823
10688 10697 10705 10714 10719 10726 10730 10736 10744 10753 10760 10768 10772 10778 10786 10790 10793 10798 10801 10805 10808 10811 10814 10816 10817 10819 10821 10822 10822 10822 10822 10821 10820